Livermore, CA

10:19 AM PDT on May 27, 2017 (GMT -0700)
Livermore Municipal

Weather History for KLVK - November, 2013

Change the Weather History Date:

Wednesday, November 20, 2013

  Actual Average Record
Temperature  
Mean Temperature 59 °F 52 °F  
Max Temperature 64 °F 63 °F 81 °F (1932)
Min Temperature 53 °F 41 °F 27 °F (1941)
Degree Days  
Heating Degree Days 6 13  
Month to date heating degree days 129 197  
Since 1 July heating degree days 208 325  
Cooling Degree Days 0 0  
Month to date cooling degree days 0 0  
Year to date cooling degree days 1039 829  
Growing Degree Days 8 (Base 50)    
Moisture  
Dew Point 55 °F    
Average Humidity 83    
Maximum Humidity 93    
Minimum Humidity 73    
Precipitation  
Precipitation 1.12 in 0.07 in 1.56 in (1963)
Month to date precipitation 1.42 1.34  
Year to date precipitation 4.01 12.39  
Since 1 July precipitation 1.89  
Sea Level Pressure  
Sea Level Pressure 29.89 in    
Wind  
Wind Speed 3 mph (West)    
Max Wind Speed 15 mph    
Max Gust Speed 17 mph    
Visibility 7 miles    
Events Rain    
T = Trace of Precipitation, MM = Missing Value Source: NWS Daily Summary

Daily Weather History Graph

Daily Weather History Graph

Search for Another Location

Airport or City:

Trip Planner

Search our weather history database for the weather conditions in past years. The results will help you decide how hot, cold, wet, or windy it might be!

Date:

Astronomy

Nov. 20, 2013 Rise Set
Actual Time 6:52 AM PST 4:52 PM PST
Civil Twilight 6:24 AM PST 5:21 PM PST
Nautical Twilight 5:52 AM PST 5:52 PM PST
Astronomical Twilight 5:21 AM PST 6:24 PM PST
Moon 7:40 PM PST (11/20) 9:21 AM PST (11/20)
Length of Visible Light 10h 56m
Length of Day
9h 59m
Waning Gibbous, 91% of the Moon is Illuminated
Nov 20
Waning Gibbous
Nov 25
Last Quarter
Dec 2
New
Dec 9
First Quarter
Dec 17
Full

Hourly Weather History & Observations

Time (PST) Temp. Dew Point Humidity Pressure Visibility Wind Dir Wind Speed Gust Speed Precip Events Conditions
12:53 AM 57.0 °F 55.0 °F 93% 29.94 in 6.0 mi Calm Calm - 0.01 in Rain Light Rain
1:00 AM 57.2 °F 55.4 °F 94% 29.94 in 6.0 mi Calm Calm - 0.01 in Rain Light Rain
1:53 AM 57.9 °F 55.0 °F 90% 29.92 in 9.0 mi Calm Calm - 0.01 in Rain Light Rain
2:31 AM 57.2 °F 55.4 °F 94% 29.93 in 6.0 mi Calm Calm - 0.00 in Rain Light Rain
2:53 AM 57.0 °F 55.0 °F 93% 29.92 in 5.0 mi Calm Calm - 0.00 in   Overcast
3:16 AM 57.2 °F 55.4 °F 94% 29.91 in 5.0 mi Calm Calm - N/A   Overcast
3:42 AM 57.2 °F 55.4 °F 94% 29.91 in 7.0 mi ENE 3.5 mph - N/A   Overcast
3:53 AM 57.0 °F 55.0 °F 93% 29.90 in 8.0 mi ENE 3.5 mph - N/A   Overcast
4:53 AM 57.0 °F 55.0 °F 93% 29.91 in 8.0 mi Calm Calm - N/A   Overcast
5:34 AM 57.2 °F 55.4 °F 94% 29.90 in 7.0 mi Calm Calm - 0.01 in Rain Light Rain
5:53 AM 57.0 °F 55.0 °F 93% 29.90 in 6.0 mi Calm Calm - 0.01 in Rain Light Rain
6:53 AM 57.0 °F 55.0 °F 93% 29.91 in 9.0 mi Calm Calm - 0.01 in   Overcast
7:33 AM 57.2 °F 55.4 °F 94% 29.91 in 10.0 mi Calm Calm - N/A   Overcast
7:53 AM 57.9 °F 55.9 °F 93% 29.91 in 8.0 mi Calm Calm - N/A   Overcast
8:53 AM 61.0 °F 55.0 °F 81% 29.91 in 10.0 mi Calm Calm - N/A   Overcast
9:06 AM 60.8 °F 55.4 °F 82% 29.91 in 10.0 mi Calm Calm - N/A   Overcast
9:25 AM 60.8 °F 55.4 °F 82% 29.91 in 10.0 mi Calm Calm - N/A   Overcast
9:53 AM 62.1 °F 55.0 °F 78% 29.90 in 10.0 mi Calm Calm - N/A   Overcast
10:00 AM 62.6 °F 55.4 °F 77% 29.91 in 10.0 mi Calm Calm - N/A   Overcast
10:08 AM 62.6 °F 55.4 °F 77% 29.91 in 10.0 mi Calm Calm - N/A   Overcast
10:53 AM 64.0 °F 55.9 °F 75% 29.89 in 10.0 mi West 6.9 mph - N/A   Overcast
11:00 AM 64.4 °F 55.4 °F 73% 29.89 in 10.0 mi WSW 5.8 mph - N/A   Overcast
11:21 AM 62.6 °F 55.4 °F 77% 29.88 in 10.0 mi West 5.8 mph - N/A   Overcast
11:32 AM 62.6 °F 55.4 °F 77% 29.88 in 1.8 mi West 6.9 mph 16.1 mph 0.03 in Rain Heavy Rain
11:42 AM 60.8 °F 55.4 °F 82% 29.87 in 4.0 mi Calm Calm - 0.10 in Rain Light Rain
11:53 AM 61.0 °F 55.9 °F 83% 29.87 in 2.0 mi Calm Calm - 0.19 in Rain Heavy Rain
12:51 PM 59.0 °F 57.2 °F 94% 29.86 in 1.5 mi WNW 8.1 mph - 0.45 in Rain Rain
12:53 PM 59.0 °F 57.0 °F 93% 29.86 in 1.5 mi WNW 9.2 mph - 0.46 in Rain Heavy Rain
1:40 PM 59.0 °F 57.2 °F 94% 29.86 in 1.5 mi WNW 4.6 mph - 0.23 in Rain Heavy Rain
1:53 PM 57.9 °F 55.9 °F 93% 29.86 in 2.5 mi West 12.7 mph 17.3 mph 0.29 in Rain Rain
2:01 PM 57.2 °F 55.4 °F 94% 29.86 in 5.0 mi WNW 11.5 mph - 0.01 in Rain Rain
2:08 PM 57.2 °F 55.4 °F 94% 29.86 in 4.0 mi WNW 11.5 mph - 0.03 in Rain Rain
2:53 PM 57.9 °F 55.0 °F 90% 29.86 in 5.0 mi South 4.6 mph - 0.12 in Rain Light Rain
3:53 PM 57.9 °F 55.0 °F 90% 29.85 in 10.0 mi Calm Calm - 0.02 in   Overcast
4:35 PM 57.2 °F 55.4 °F 94% 29.87 in 10.0 mi West 8.1 mph - N/A   Overcast
4:53 PM 57.9 °F 54.0 °F 87% 29.87 in 10.0 mi WNW 4.6 mph - N/A   Mostly Cloudy
5:53 PM 55.9 °F 53.1 °F 90% 29.87 in 10.0 mi West 5.8 mph - N/A   Mostly Cloudy
6:00 PM 55.4 °F 53.6 °F 94% 29.87 in 10.0 mi West 6.9 mph - N/A   Partly Cloudy
6:15 PM 55.4 °F 51.8 °F 88% 29.87 in 10.0 mi West 6.9 mph - N/A   Mostly Cloudy
6:32 PM 55.4 °F 53.6 °F 94% 29.87 in 10.0 mi WNW 3.5 mph - N/A   Mostly Cloudy
6:53 PM 55.9 °F 53.1 °F 90% 29.88 in 10.0 mi West 3.5 mph - N/A   Mostly Cloudy
7:23 PM 55.4 °F 51.8 °F 88% 29.88 in 8.0 mi West 4.6 mph - N/A   Overcast
7:35 PM 55.4 °F 51.8 °F 88% 29.88 in 7.0 mi West 8.1 mph - N/A   Mostly Cloudy
7:45 PM 53.6 °F 51.8 °F 94% 29.88 in 7.0 mi West 9.2 mph - N/A   Scattered Clouds
7:53 PM 54.0 °F 52.0 °F 93% 29.88 in 8.0 mi West 8.1 mph - N/A   Partly Cloudy
8:53 PM 53.1 °F 51.1 °F 93% 29.89 in 8.0 mi Calm Calm - N/A   Scattered Clouds
9:04 PM 53.6 °F 51.8 °F 94% 29.89 in 8.0 mi Calm Calm - N/A   Mostly Cloudy
9:53 PM 54.0 °F 52.0 °F 93% 29.89 in 7.0 mi Calm Calm - N/A   Overcast
10:53 PM 54.0 °F 52.0 °F 93% 29.89 in 8.0 mi West 4.6 mph - N/A   Overcast
11:53 PM 54.0 °F 51.1 °F 90% 29.90 in 10.0 mi West 5.8 mph - N/A   Overcast